Location: Unspecified
(45.9512°N, 0.0000°E)
Time: 00:20:18
(UTC+00:00)

ACS3 Solar Sail - Visible Passes

Search period start: 05 April 2026 00:00
Search period end: 15 April 2026 00:00
Orbit: 874 x 980 km, 97.2° (Epoch: 29 March)

Date Brightness Start Highest point End Pass type
(mag) Time Alt. Az. Time Alt. Az. Time Alt. Az.
5 Apr 3.7 00:10:40 10° NE 00:13:20 19° ENE 00:13:20 19° ENE visible
5 Apr 2.2 01:52:11 10° N 01:56:56 54° NNW 01:56:56 54° NNW visible
5 Apr 3.7 03:37:14 10° NNW 03:39:25 12° NW 03:40:32 12° WNW visible
6 Apr 3.5 00:20:27 10° NE 00:23:41 23° ENE 00:23:41 23° ENE visible
6 Apr 2.2 02:02:21 10° N 02:07:17 49° NW 02:07:17 49° NW visible
7 Apr 3.3 00:30:16 10° NNE 00:33:58 28° ENE 00:33:58 28° ENE visible
7 Apr 2.4 02:12:30 10° N 02:17:33 43° NW 02:17:33 43° NW visible
8 Apr 3.0 00:40:05 10° NNE 00:44:12 34° ENE 00:44:12 34° ENE visible
8 Apr 2.5 02:22:36 10° N 02:27:47 37° WNW 02:27:47 37° WNW visible
9 Apr 2.7 00:49:54 10° NNE 00:54:22 41° ENE 00:54:22 41° ENE visible
9 Apr 2.7 02:32:43 10° N 02:37:54 32° WNW 02:37:56 32° WNW visible
10 Apr 2.4 00:59:41 10° NNE 01:04:28 49° ENE 01:04:28 49° ENE visible
10 Apr 2.9 02:42:46 10° N 02:47:40 27° WNW 02:48:03 27° WNW visible
10 Apr 4.2 23:30:48 10° ENE 23:30:57 10° ENE 23:30:57 10° ENE visible
11 Apr 2.2 01:09:27 10° NNE 01:14:31 59° NE 01:14:31 59° NE visible
11 Apr 3.1 02:52:50 10° NNW 02:57:22 23° WNW 02:58:05 22° WNW visible
11 Apr 4.0 23:39:09 10° NE 23:40:56 13° ENE 23:40:56 13° ENE visible
12 Apr 1.9 01:19:12 10° NNE 01:24:30 69° NNE 01:24:30 69° NNE visible
12 Apr 3.3 03:02:53 10° NNW 03:06:59 19° WNW 03:08:04 18° WNW visible
12 Apr 3.8 23:48:09 10° NE 23:50:52 16° ENE 23:50:52 16° ENE visible
13 Apr 1.8 01:28:54 10° N 01:34:26 75° N 01:34:26 75° N visible
13 Apr 3.5 03:12:58 10° NNW 03:16:31 16° WNW 03:18:00 15° WNW visible
13 Apr 3.6 23:57:19 10° NE 00:00:45 19° ENE 00:00:45 19° ENE visible
14 Apr 1.8 01:38:35 10° N 01:44:18 70° NW 01:44:18 70° NW visible
14 Apr 3.6 03:23:08 10° NNW 03:25:59 14° NW 03:27:52 12° WNW visible
